Wind_Speed
42 42 43 42 43 43 43 43 42 42 41 41 41 40 39 39 38 38 38 38 37 37 37 37 36 36 36 36 35 35 35 34 34 33 33 33 33 35 35 36 36 36 37
40 41 43 42 42 43 42 43 43 43 42 42 42 41 40 40 39 39 39 38 38 37 37 37 37 36 37 37 37 37 37 37 37 35 35 34 35 36 36 37 37 38 38
39 40 41 42 41 41 41 42 42 43 43 43 43 43 41 41 41 40 40 40 39 38 38 38 37 37 37 38 37 37 37 37 37 37 37 36 36 37 37 37 37 37 38
38 38 40 40 39 39 40 41 42 42 43 43 43 42 42 42 41 40 40 40 40 39 39 38 38 37 37 37 38 38 39 39 39 39 38 37 37 37 37 37 38 38 39
36 36 37 38 39 38 39 40 40 41 42 43 42 42 41 41 41 40 40 40 40 40 39 39 39 38 38 38 38 39 39 40 39 39 39 38 38 38 38 38 38 39 39
35 34 35 36 37 38 39 40 39 40 40 42 42 41 40 40 40 39 40 40 40 40 40 40 40 39 39 38 39 38 39 39 39 39 39 39 39 39 40 40 39 39 40
32 33 34 35 35 36 37 38 37 37 38 39 40 40 40 40 40 39 40 40 39 40 40 40 40 39 39 39 38 38 39 39 39 39 39 40 40 40 41 41 41 40 40
30 31 32 33 34 34 35 36 35 35 36 38 39 40 41 41 40 39 39 40 40 40 41 41 40 40 40 39 38 38 39 39 40 40 40 40 40 41 41 42 42 42 41
28 29 30 31 31 32 33 34 34 35 35 36 38 40 40 41 40 40 39 39 40 40 41 41 40 40 40 40 39 39 39 40 40 41 41 41 41 42 42 43 43 44 43
28 29 29 29 30 31 32 33 33 34 34 35 36 38 38 39 40 39 38 38 38 39 39 40 40 41 41 40 40 40 40 41 41 42 42 42 43 43 43 43 44 44 44
29 29 29 29 30 31 31 31 32 33 33 34 35 36 37 38 38 39 38 38 38 38 39 39 40 40 41 41 41 41 41 41 41 42 42 43 43 43 43 44 44 45 44
29 29 29 30 30 30 30 31 31 32 32 33 34 36 37 37 37 38 38 37 38 38 38 40 40 40 40 41 41 41 41 41 41 42 42 42 43 43 44 44 45 45 45
28 28 29 29 30 30 31 31 31 31 32 32 33 34 35 36 36 36 36 37 38 38 39 39 39 40 40 41 41 41 41 41 41 41 41 42 43 43 44 44 45 45 46
28 28 29 29 30 29 30 31 32 32 32 33 33 33 33 34 34 35 36 36 37 38 38 39 39 40 41 41 41 41 40 41 41 42 42 43 43 43 44 44 45 46 46
28 29 29 29 30 30 30 31 32 32 33 33 33 33 33 33 34 34 35 36 36 36 37 38 38 39 40 41 41 41 41 42 42 42 43 43 43 43 43 44 45 45 45
28 29 30 30 31 30 30 31 32 32 33 33 33 33 33 33 34 34 34 35 36 36 36 37 37 38 40 40 40 40 41 42 42 42 42 42 42 43 44 44 44 45 44
29 29 29 30 31 32 32 32 32 33 33 33 34 33 33 34 34 34 35 35 35 36 37 38 37 38 39 39 39 40 41 41 42 42 42 42 42 43 44 44 43 43 42
30 30 30 30 31 32 32 32 32 32 33 34 34 34 33 34 34 34 35 35 35 36 37 37 37 37 37 38 38 39 40 40 41 41 42 42 42 42 42 42 41 41 40
30 31 31 31 31 31 31 32 32 32 32 33 33 33 33 33 34 34 35 35 35 35 36 36 35 35 35 36 37 38 39 39 40 41 41 41 40 40 40 40 40 39 39
31 31 31 31 31 31 31 31 32 32 32 32 33 32 33 33 34 34 34 34 34 35 36 36 36 35 35 36 36 37 38 38 39 39 39 39 38 38 38 39 38 37 37
30 30 30 31 31 31 31 31 31 31 31 32 32 33 33 33 34 34 34 34 34 35 35 36 35 35 36 36 37 37 38 37 37 37 37 37 36 36 36 37 36 35 36
28 28 28 29 29 29 30 30 30 30 30 30 31 31 32 32 32 33 33 34 34 34 34 34 35 35 36 36 36 36 37 37 36 36 35 35 35 35 35 35 35 35 35
28 28 28 28 28 28 29 29 29 29 29 30 30 30 31 31 32 32 34 34 34 34 33 33 33 33 33 34 35 35 35 35 35 34 34 33 33 33 33 33 33 34 35
28 28 28 28 28 28 28 29 29 29 29 29 30 30 30 30 31 32 33 33 33 33 32 32 32 32 32 32 32 32 33 33 32 31 31 31 31 31 31 32 33 33 33
27 27 28 28 28 28 28 28 29 29 29 29 29 29 30 30 31 32 32 32 31 31 31 31 31 31 31 31 31 31 30 30 30 29 29 30 30 30 31 31 32 32 33
25 26 27 27 27 27 27 27 28 28 28 28 28 28 28 29 30 30 31 30 30 30 30 31 31 31 31 31 31 30 30 29 30 30 30 30 30 30 30 30 30 31 31
Wind_Direction
251 250 248 247 247 247 247 246 245 246 246 248 249 252 252 252 253 255 255 256 256 255 255 255 256 257 257 257 258 260 260 260 260 262 262 263 265 266 267 268 270 271 273
250 250 248 247 247 246 246 246 246 246 246 247 248 251 252 253 253 253 254 254 254 254 254 254 255 256 258 257 257 259 259 260 260 262 263 264 265 266 267 269 271 273 274
251 250 250 247 247 246 246 246 246 246 247 248 249 250 253 254 252 253 253 253 253 252 253 253 255 256 258 257 257 258 259 260 261 263 264 264 264 266 268 270 272 274 275
250 250 251 248 247 245 245 245 246 247 248 249 250 250 253 252 252 252 252 252 252 251 251 252 253 256 257 257 257 259 260 261 263 264 264 265 265 266 266 269 271 273 275
251 251 250 249 247 246 246 246 247 248 248 249 250 250 250 251 250 250 250 249 249 249 249 251 252 254 256 258 259 260 261 262 262 263 264 265 266 267 267 268 270 272 275
250 249 248 249 249 248 246 246 249 249 248 248 249 247 248 249 249 249 248 247 248 247 248 250 252 253 256 258 260 261 262 262 263 263 265 266 267 268 269 269 270 272 275
251 250 250 249 249 248 246 245 247 248 247 247 247 246 246 247 248 249 248 248 247 247 248 250 251 253 255 258 259 261 262 263 263 264 265 267 267 268 269 271 271 273 276
253 252 252 250 249 247 246 245 247 248 248 248 247 246 247 247 248 248 247 248 247 247 248 249 251 253 255 257 259 261 262 263 264 265 266 268 269 269 271 272 272 274 276
252 252 250 249 248 248 248 247 248 248 248 249 249 248 248 249 249 249 248 248 247 247 248 249 251 253 256 258 261 262 263 264 265 266 268 269 270 270 271 272 274 275 276
251 250 248 248 249 250 250 247 248 249 250 250 250 249 249 250 249 247 247 248 248 248 249 250 252 255 257 259 261 262 264 265 266 267 268 268 269 270 271 273 275 276 277
249 249 248 249 250 251 250 248 248 249 251 251 251 250 250 250 250 248 248 248 250 250 250 252 254 256 258 259 261 263 264 265 267 268 269 269 269 270 273 274 276 277 278
249 249 250 250 250 250 249 248 248 248 250 251 251 251 250 250 251 249 249 249 250 251 252 254 255 257 258 260 262 263 264 266 267 268 270 270 271 272 273 275 277 277 279
249 248 250 250 249 248 248 248 248 248 249 250 250 251 250 251 252 251 250 251 251 251 252 253 254 257 258 260 262 263 265 266 267 269 270 271 272 272 274 275 277 278 279
251 248 249 249 248 249 249 247 248 249 250 250 251 250 250 251 251 252 251 251 252 253 254 253 255 257 259 261 262 263 265 266 267 268 269 270 271 272 274 276 278 279 279
253 251 250 249 250 250 249 249 249 249 250 250 250 251 252 252 252 252 253 253 254 255 255 256 256 257 259 260 262 263 265 265 267 269 270 270 269 271 274 275 277 278 278
254 253 252 251 251 251 251 249 249 250 250 250 251 252 252 253 252 252 252 253 254 255 255 257 258 259 260 261 261 263 265 266 267 269 269 271 270 272 273 275 277 278 277
255 255 252 251 251 251 251 249 250 250 250 250 251 253 254 254 253 253 253 253 253 254 256 257 259 260 261 262 262 263 264 266 267 269 269 270 270 271 273 275 276 277 276
256 255 252 252 252 252 253 250 250 251 252 252 253 254 254 255 254 254 254 254 255 256 258 259 260 261 262 262 263 265 265 266 267 269 270 270 270 271 272 274 275 276 276
257 255 253 253 252 253 253 251 250 251 252 253 254 254 255 255 254 254 255 255 255 257 258 259 260 261 262 263 265 265 266 267 268 270 271 270 270 271 272 273 274 274 274
257 256 254 253 252 252 253 252 251 251 253 254 254 255 256 256 255 255 255 256 256 258 260 259 260 261 263 264 265 266 267 269 271 271 271 270 270 272 273 273 273 273 273
257 256 254 253 253 253 252 253 251 253 255 255 254 254 255 255 256 255 255 255 257 260 260 260 260 261 263 264 265 266 268 269 270 270 270 269 270 272 273 272 272 272 272
256 256 255 255 253 253 253 253 253 254 255 255 255 254 255 256 255 254 255 256 259 260 261 260 261 262 263 265 266 266 267 269 270 270 269 269 270 271 271 272 271 272 272
256 256 257 256 255 255 255 254 254 255 255 256 256 257 257 257 256 256 256 257 259 260 261 262 262 263 263 265 266 266 267 268 270 269 268 268 270 271 271 271 271 273 274
257 257 257 257 256 257 256 254 254 256 257 257 257 256 256 257 258 257 257 258 259 261 262 262 263 264 265 266 267 267 267 268 268 269 268 268 269 270 273 273 273 274 275
259 258 258 257 257 258 256 255 255 256 257 257 257 257 257 259 259 259 259 258 259 261 262 263 264 265 266 267 267 267 267 267 267 267 267 268 269 272 274 275 275 275 275
259 258 259 258 258 257 257 256 257 257 257 257 257 258 258 259 260 260 259 258 258 260 262 264 264 265 266 266 266 266 265 265 266 266 267 268 269 272 275 276 277 276 275
Height
5696 5698 5701 5704 5707 5711 5714 5717 5721 5724 5727 5730 5733 5735 5737 5739 5741 5743 5745 5746 5748 5749 5750 5752 5753 5755 5756 5757 5759 5760 5761 5762 5763 5763 5764 5764 5765 5765 5765 5765 5765 5764 5764
5685 5687 5690 5693 5696 5700 5703 5706 5710 5714 5717 5720 5722 5725 5727 5729 5731 5733 5735 5737 5738 5740 5742 5743 5745 5746 5748 5749 5750 5752 5753 5754 5755 5756 5756 5756 5757 5757 5757 5756 5756 5756 5755
5675 5677 5679 5682 5686 5689 5692 5696 5699 5703 5706 5709 5712 5714 5716 5718 5721 5723 5725 5727 5729 5731 5732 5734 5736 5737 5739 5740 5742 5743 5744 5745 5746 5747 5748 5749 5749 5749 5749 5748 5748 5747 5746
5664 5667 5669 5672 5675 5678 5681 5685 5688 5692 5695 5698 5701 5704 5706 5708 5710 5712 5714 5716 5718 5721 5723 5725 5726 5728 5730 5732 5733 5734 5735 5737 5737 5738 5739 5740 5740 5741 5741 5740 5739 5738 5737
5655 5657 5659 5662 5665 5668 5671 5674 5677 5681 5684 5687 5689 5692 5695 5697 5699 5701 5703 5705 5708 5710 5713 5715 5717 5719 5721 5722 5724 5725 5726 5728 5728 5729 5730 5730 5731 5731 5732 5732 5731 5730 5728
5646 5648 5650 5652 5655 5658 5661 5664 5667 5670 5673 5676 5678 5681 5684 5686 5688 5691 5693 5695 5697 5700 5702 5705 5707 5709 5711 5713 5715 5716 5717 5718 5719 5720 5721 5721 5722 5722 5722 5722 5722 5721 5719
5637 5639 5641 5643 5645 5648 5651 5654 5657 5660 5662 5665 5667 5670 5673 5675 5678 5680 5683 5685 5687 5690 5693 5695 5698 5700 5702 5704 5705 5707 5708 5709 5710 5711 5711 5712 5712 5712 5712 5712 5711 5711 5709
5628 5630 5632 5634 5637 5639 5642 5644 5647 5650 5652 5655 5657 5659 5662 5665 5667 5670 5672 5675 5677 5680 5683 5685 5688 5690 5693 5694 5696 5697 5698 5699 5700 5701 5702 5702 5702 5702 5701 5701 5701 5700 5699
5621 5623 5624 5626 5628 5630 5633 5635 5638 5641 5643 5645 5647 5649 5652 5654 5657 5660 5662 5664 5667 5670 5673 5675 5678 5681 5683 5685 5686 5687 5688 5689 5690 5691 5692 5692 5691 5691 5691 5690 5689 5689 5688
5613 5615 5616 5618 5620 5622 5624 5627 5629 5632 5633 5635 5637 5639 5642 5644 5647 5650 5652 5655 5658 5661 5663 5666 5668 5671 5673 5674 5676 5677 5678 5679 5680 5680 5681 5681 5681 5681 5680 5679 5678 5677 5676
5604 5606 5608 5610 5612 5614 5616 5618 5621 5622 5624 5626 5628 5630 5632 5634 5637 5640 5643 5645 5648 5651 5654 5656 5659 5661 5663 5664 5665 5666 5667 5668 5669 5670 5670 5670 5670 5669 5669 5668 5667 5666 5665
5597 5598 5600 5602 5604 5606 5607 5610 5612 5613 5615 5617 5618 5621 5623 5625 5628 5630 5633 5636 5639 5642 5644 5647 5649 5651 5652 5653 5655 5656 5657 5658 5658 5659 5659 5659 5658 5658 5657 5657 5656 5654 5653
5589 5590 5592 5594 5595 5597 5599 5601 5603 5605 5606 5608 5610 5612 5614 5616 5618 5621 5624 5626 5629 5632 5634 5636 5638 5640 5642 5643 5644 5645 5646 5647 5647 5647 5647 5647 5647 5647 5646 5645 5644 5643 5641
5581 5582 5584 5585 5587 5589 5591 5592 5595 5596 5598 5600 5601 5603 5605 5607 5610 5612 5614 5617 5620 5622 5624 5626 5628 5630 5631 5632 5633 5634 5635 5635 5636 5636 5636 5636 5636 5635 5634 5633 5632 5630 5629
5573 5574 5576 5577 5579 5580 5582 5584 5586 5588 5589 5591 5593 5595 5596 5598 5600 5602 5605 5608 5610 5612 5614 5616 5618 5619 5620 5621 5622 5623 5623 5624 5624 5624 5624 5624 5623 5623 5622 5621 5619 5618 5617
5565 5566 5567 5569 5570 5572 5573 5575 5577 5578 5580 5582 5583 5585 5587 5589 5590 5593 5595 5598 5600 5602 5604 5606 5607 5609 5610 5611 5611 5611 5612 5612 5612 5612 5612 5611 5611 5610 5609 5608 5607 5606 5604
5556 5557 5558 5560 5561 5563 5564 5566 5568 5570 5571 5573 5574 5576 5578 5579 5581 5583 5586 5588 5590 5592 5594 5596 5597 5598 5599 5599 5600 5600 5601 5601 5600 5600 5600 5599 5598 5598 5597 5596 5595 5593 5592
5547 5548 5549 5550 5552 5554 5555 5557 5559 5560 5562 5564 5565 5567 5569 5571 5572 5574 5576 5578 5580 5582 5583 5585 5586 5587 5588 5588 5589 5589 5589 5589 5589 5588 5588 5587 5586 5585 5585 5584 5583 5582 5581
5537 5539 5540 5541 5543 5545 5546 5548 5550 5551 5553 5555 5557 5558 5560 5562 5563 5565 5567 5568 5570 5572 5573 5574 5575 5576 5577 5577 5577 5577 5577 5578 5577 5577 5576 5575 5574 5574 5573 5573 5572 5571 5570
5528 5529 5531 5532 5534 5535 5537 5538 5540 5542 5544 5546 5547 5549 5551 5552 5554 5556 5557 5559 5560 5561 5562 5564 5565 5566 5566 5566 5566 5566 5566 5567 5566 5565 5564 5563 5563 5562 5561 5561 5561 5560 5559
5519 5520 5521 5523 5525 5526 5528 5529 5531 5533 5535 5536 5538 5540 5541 5543 5544 5546 5547 5549 5550 5552 5553 5554 5555 5555 5555 5555 5555 5555 5555 5555 5554 5554 5553 5552 5552 5551 5550 5550 5550 5549 5549
5510 5511 5513 5514 5516 5517 5519 5520 5522 5524 5525 5527 5528 5530 5532 5533 5535 5536 5538 5539 5540 5541 5542 5543 5544 5544 5544 5544 5544 5544 5543 5543 5543 5542 5542 5541 5541 5540 5540 5540 5539 5539 5538
5501 5503 5504 5505 5507 5509 5510 5512 5513 5515 5516 5518 5519 5521 5522 5524 5525 5526 5528 5529 5530 5531 5532 5533 5533 5534 5534 5533 5533 5533 5532 5532 5532 5531 5531 5531 5530 5530 5530 5530 5529 5529 5528
5493 5494 5495 5497 5499 5500 5502 5503 5505 5506 5508 5509 5510 5511 5513 5514 5515 5516 5518 5519 5520 5521 5522 5522 5523 5523 5524 5523 5523 5522 5522 5522 5521 5521 5521 5521 5520 5520 5520 5520 5520 5519 5518
5485 5486 5487 5488 5490 5492 5493 5494 5496 5497 5499 5500 5501 5502 5503 5505 5505 5506 5507 5509 5510 5511 5512 5513 5513 5514 5514 5514 5513 5512 5512 5512 5512 5512 5512 5512 5512 5512 5512 5511 5510 5509 5508
5476 5477 5478 5480 5481 5483 5484 5485 5487 5488 5489 5491 5492 5493 5494 5495 5496 5497 5498 5498 5500 5501 5502 5502 5503 5503 5503 5503 5503 5503 5503 5503 5503 5503 5504 5504 5504 5503 5503 5502 5501 5500 5499